GW7296 Weather Reports


time (UTC)temp
C
wind
direction
speed
KPH
gust
KPH
rain 1hr
cm
rain 24hr
cm
rain mn
cm
humidity
%
barometer
mb
20260504100516 7 215 0.0 0.0 0.00 0.00 0.00 76 1004.3
20260504081909 9 215 0.0 0.0 0.00 0.00 0.00 74 1004.4
20260504081406 9 215 0.0 0.0 0.00 0.00 0.00 72 1004.1
20260504080902 10 215 0.0 0.0 0.00 0.00 0.00 71 1004.5
20260504080359 10 215 0.0 0.0 0.00 0.00 0.00 71 1004.3
20260504070327 12 215 0.0 3.2 0.00 0.00 0.00 62 1005.3
20260504060247 12 214 0.0 3.2 0.00 0.00 0.00 63 1006.0
20260504050715 13 202 0.0 4.8 0.00 0.00 0.00 61 1006.1
20260504050212 13 199 4.8 6.4 0.00 0.00 0.00 60 1006.1
20260504045709 13 210 6.4 16.1 0.00 0.00 0.00 59 1006.1
20260504045209 13 206 3.2 9.7 0.00 0.00 0.00 59 1006.0
20260504044708 13 207 4.8 4.8 0.00 0.00 0.00 59 1006.0
20260504044204 13 210 3.2 6.4 0.00 0.00 0.00 59 1006.1
20260504043701 13 204 3.2 9.7 0.00 0.00 0.00 58 1006.0
20260504043158 13 208 3.2 4.8 0.00 0.00 0.00 58 1005.9
20260504042656 13 206 4.8 9.7 0.00 0.00 0.00 58 1005.9
20260504042152 14 212 0.0 4.8 0.00 0.00 0.00 59 1006.2
20260504041648 14 227 3.2 11.3 0.00 0.00 0.00 58 1006.0
20260504041144 14 219 4.8 6.4 0.00 0.00 0.00 57 1006.0
20260504040641 14 212 6.4 6.4 0.00 0.00 0.00 57 1005.9
20260504040138 14 215 6.4 6.4 0.00 0.00 0.00 57 1005.9
20260504035635 14 198 1.6 11.3 0.00 0.00 0.00 57 1006.0
20260504035132 15 216 6.4 9.7 0.00 0.00 0.00 57 1006.0
20260504034630 15 210 4.8 6.4 0.00 0.00 0.00 56 1005.8
20260504034126 15 200 3.2 6.4 0.00 0.00 0.00 56 1006.0
20260504033624 15 211 3.2 6.4 0.00 0.00 0.00 56 1006.1
20260504033121 15 214 9.7 11.3 0.00 0.00 0.00 56 1006.0
20260504032618 15 200 4.8 6.4 0.00 0.00 0.00 56 1006.1
20260504032115 15 199 4.8 6.4 0.00 0.00 0.00 55 1006.2
20260504031612 15 214 3.2 6.4 0.00 0.00 0.00 55 1006.1
20260504031108 15 200 1.6 9.7 0.00 0.00 0.00 54 1006.3
20260504030605 15 200 3.2 11.3 0.00 0.00 0.00 54 1006.5
20260504025559 15 206 4.8 6.4 0.00 0.00 0.00 53 1006.2
20260504025055 15 203 4.8 6.4 0.00 0.00 0.00 53 1006.5
20260504024553 15 206 3.2 9.7 0.00 0.00 0.00 53 1006.5
20260504024049 16 202 3.2 9.7 0.00 0.00 0.00 53 1006.6
20260504023546 16 224 8.0 9.7 0.00 0.00 0.00 52 1006.5
20260504023042 16 215 4.8 6.4 0.00 0.00 0.00 52 1006.5
20260504022538 16 207 4.8 9.7 0.00 0.00 0.00 51 1006.3
20260504022034 16 199 3.2 9.7 0.00 0.00 0.00 50 1006.2
20260504021532 16 198 3.2 6.4 0.00 0.00 0.00 50 1006.3
20260504021029 16 206 3.2 4.8 0.00 0.00 0.00 49 1006.3
20260504020525 16 205 1.6 3.2 0.00 0.00 0.00 49 1006.1
20260504020022 16 210 3.2 6.4 0.00 0.00 0.00 48 1006.1
20260504015518 16 213 3.2 4.8 0.00 0.00 0.00 48 1006.1
20260504015014 16 208 4.8 4.8 0.00 0.00 0.00 47 1006.0
20260504014510 16 211 1.6 4.8 0.00 0.00 0.00 47 1006.0
20260504014008 17 212 3.2 4.8 0.00 0.00 0.00 47 1006.2
20260504013506 17 214 4.8 6.4 0.00 0.00 0.00 46 1006.2
20260504013002 17 204 1.6 9.7 0.00 0.00 0.00 46 1006.0
20260504012500 17 221 4.8 6.4 0.00 0.00 0.00 45 1006.0
20260504011958 17 210 3.2 6.4 0.00 0.00 0.00 45 1005.7
20260504011454 17 205 1.6 4.8 0.00 0.00 0.00 44 1005.8
20260504010950 17 208 3.2 4.8 0.00 0.00 0.00 44 1005.8
20260504010446 18 208 3.2 4.8 0.00 0.00 0.00 44 1005.7
20260504005942 18 207 4.8 6.4 0.00 0.00 0.00 43 1005.6
20260504005439 18 210 1.6 6.4 0.00 0.00 0.00 42 1005.5
20260504004937 18 211 6.4 9.7 0.00 0.00 0.00 42 1005.5
20260504004434 18 207 4.8 6.4 0.00 0.00 0.00 42 1005.7
20260504003931 18 200 3.2 9.7 0.00 0.00 0.00 41 1005.6
20260504003427 18 194 3.2 6.4 0.00 0.00 0.00 42 1005.8
20260504002924 18 207 3.2 6.4 0.00 0.00 0.00 41 1005.7
20260504002421 19 210 3.2 6.4 0.00 0.00 0.00 41 1005.7
20260504001918 19 205 4.8 9.7 0.00 0.00 0.00 40 1005.7
20260504001416 19 203 4.8 14.5 0.00 0.00 0.00 40 1005.6
20260504000912 20 219 8.0 14.5 0.00 0.00 0.00 39 1005.7
20260504000409 20 214 9.7 11.3 0.00 0.00 0.00 39 1005.7
20260503235907 20 220 6.4 9.7 0.00 0.00 0.00 39 1005.8
20260503235405 20 222 9.7 20.9 0.00 0.00 0.00 38 1005.6
20260503234902 20 238 6.4 9.7 0.00 0.00 0.00 38 1005.5
20260503234359 20 199 8.0 14.5 0.00 0.00 0.00 37 1005.5
20260503233857 20 227 11.3 20.9 0.00 0.00 0.00 37 1005.9
20260503233353 20 206 3.2 9.7 0.00 0.00 0.00 39 1005.6
20260503232849 20 213 6.4 14.5 0.00 0.00 0.00 38 1005.8
20260503232347 20 188 9.7 11.3 0.00 0.00 0.00 37 1006.0
20260503231845 20 215 4.8 20.9 0.00 0.00 0.00 37 1005.9
20260503231341 20 219 6.4 19.3 0.00 0.00 0.00 38 1006.0
20260503230837 20 196 9.7 16.1 0.00 0.00 0.00 37 1006.0
20260503230334 20 163 9.7 16.1 0.00 0.00 0.00 37 1005.9
20260503225833 20 219 4.8 9.7 0.00 0.00 0.00 37 1006.1
20260503225328 20 205 6.4 16.1 0.00 0.00 0.00 36 1006.0
20260503224824 20 217 6.4 19.3 0.00 0.00 0.00 36 1006.1
20260503224322 20 208 4.8 19.3 0.00 0.00 0.00 37 1006.0
20260503223820 20 206 9.7 16.1 0.00 0.00 0.00 36 1006.3
20260503223317 20 182 9.7 11.3 0.00 0.00 0.00 36 1006.0
20260503222812 20 206 9.7 16.1 0.00 0.00 0.00 36 1006.0
20260503222311 20 219 14.5 24.1 0.00 0.00 0.00 35 1006.1
20260503221809 20 231 9.7 14.5 0.00 0.00 0.00 37 1006.0
20260503221307 20 219 16.1 25.7 0.00 0.00 0.00 36 1005.9
20260503220803 20 223 11.3 29.0 0.00 0.00 0.00 36 1006.0
20260503220300 20 202 8.0 16.1 0.00 0.00 0.00 37 1006.1
20260503215756 20 216 8.0 16.1 0.00 0.00 0.00 38 1006.2
20260503215253 20 234 12.9 19.3 0.00 0.00 0.00 38 1006.2
20260503214751 20 191 4.8 19.3 0.00 0.00 0.00 37 1006.0
20260503214248 20 198 3.2 11.3 0.00 0.00 0.00 38 1006.3
20260503213746 20 218 9.7 19.3 0.00 0.00 0.00 39 1006.3
20260503213243 20 184 11.3 19.3 0.00 0.00 0.00 38 1006.3
20260503212740 20 197 14.5 19.3 0.00 0.00 0.00 37 1006.7
20260503212238 20 148 4.8 24.1 0.00 0.00 0.00 37 1006.7
20260503211735 19 217 17.7 25.7 0.00 0.00 0.00 37 1006.7
20260503211231 18 222 8.0 11.3 0.00 0.00 0.00 39 1006.9
20260503210727 19 218 11.3 19.3 0.00 0.00 0.00 38 1007.0
20260503210224 20 189 8.0 20.9 0.00 0.00 0.00 37 1007.1
20260503205719 19 218 12.9 19.3 0.00 0.00 0.00 37 1007.2
20260503205216 18 210 9.7 20.9 0.00 0.00 0.00 38 1007.3
20260503204712 18 218 6.4 16.1 0.00 0.00 0.00 38 1007.4
20260503204211 19 211 8.0 14.5 0.00 0.00 0.00 37 1007.3
20260503203707 19 204 14.5 25.7 0.00 0.00 0.00 36 1007.5
20260503203205 19 153 8.0 30.6 0.00 0.00 0.00 36 1007.7
20260503202702 18 211 6.4 48.3 0.00 0.00 0.00 37 1007.7
20260503202200 19 202 19.3 25.7 0.00 0.00 0.00 36 1007.8
20260503201657 18 193 19.3 30.6 0.00 0.00 0.00 37 1008.1
20260503201155 18 206 8.0 29.0 0.00 0.00 0.00 38 1008.1
20260503200651 17 238 12.9 24.1 0.00 0.00 0.00 39 1008.1
20260503200147 17 181 9.7 24.1 0.00 0.00 0.00 38 1008.2
20260503195644 17 209 8.0 35.4 0.00 0.00 0.00 39 1008.4
20260503195141 17 202 11.3 33.8 0.00 0.00 0.00 40 1008.4
20260503194638 18 207 16.1 30.6 0.00 0.00 0.00 42 1008.4
20260503194133 17 225 9.7 24.1 0.00 0.00 0.00 43 1008.6
20260503193631 17 228 16.1 25.7 0.00 0.00 0.00 44 1009.0
20260503193126 17 184 9.7 16.1 0.00 0.00 0.00 44 1008.9
20260503192622 17 198 6.4 16.1 0.00 0.00 0.00 46 1008.9
20260503192118 16 228 11.3 29.0 0.00 0.00 0.00 46 1009.3
20260503191615 17 197 27.4 35.4 0.00 0.00 0.00 44 1009.3
20260503191111 16 223 8.0 16.1 0.00 0.00 0.00 46 1009.1
20260503190609 17 193 6.4 16.1 0.00 0.00 0.00 45 1009.3
20260503190106 17 187 11.3 25.7 0.00 0.00 0.00 45 1009.1
20260503185603 16 190 6.4 11.3 0.00 0.00 0.00 44 1009.1
20260503185102 16 176 6.4 20.9 0.00 0.00 0.00 45 1009.2
20260503184558 16 188 4.8 19.3 0.00 0.00 0.00 45 1009.1
20260503184055 16 224 9.7 20.9 0.00 0.00 0.00 45 1009.1
20260503183551 16 153 4.8 19.3 0.00 0.00 0.00 45 1008.9
20260503183049 16 188 8.0 14.5 0.00 0.00 0.00 42 1009.3
20260503182547 16 168 4.8 20.9 0.00 0.00 0.00 44 1009.5
20260503182045 16 170 4.8 25.7 0.00 0.00 0.00 44 1009.4
20260503181541 15 234 11.3 16.1 0.00 0.00 0.00 47 1009.5
20260503181037 15 217 9.7 16.1 0.00 0.00 0.00 46 1009.8
20260503180535 15 192 8.0 20.9 0.00 0.00 0.00 47 1009.8
20260503180032 15 175 6.4 11.3 0.00 0.00 0.00 46 1010.1
20260503175530 15 187 4.8 14.5 0.00 0.00 0.00 47 1010.1
20260503175027 15 39 0.0 19.3 0.00 0.00 0.00 49 1009.9
20260503174524 15 168 3.2 9.7 0.00 0.00 0.00 48 1010.5
20260503174020 15 198 6.4 11.3 0.00 0.00 0.00 51 1010.5
20260503173515 15 163 4.8 6.4 0.00 0.00 0.00 48 1010.4
20260503173012 15 194 9.7 11.3 0.00 0.00 0.00 48 1010.7
20260503172510 15 172 3.2 24.1 0.00 0.00 0.00 51 1010.7
20260503172006 15 202 11.3 16.1 0.00 0.00 0.00 50 1011.1
20260503171503 14 168 4.8 19.3 0.00 0.00 0.00 51 1011.0
20260503171000 13 205 1.6 16.1 0.00 0.00 0.00 55 1011.2
20260503170456 13 208 8.0 19.3 0.00 0.00 0.00 54 1011.5
20260503150849 11 241 16.1 20.9 0.00 0.00 0.00 56 1013.6
20260503150345 12 214 14.5 29.0 0.00 0.00 0.00 53 1013.6
20260503140309 11 226 6.4 16.1 0.00 0.00 0.00 55 1013.6
20260503131238 9 212 11.3 14.5 0.00 0.00 0.00 55 1014.1
20260503130736 9 208 3.2 11.3 0.00 0.00 0.00 57 1014.1
20260503130233 9 233 8.0 14.5 0.00 0.00 0.00 57 1014.1
20260503120159 8 195 6.4 14.5 0.00 0.00 0.00 56 1014.3
20260503110626 7 207 3.2 9.7 0.00 0.00 0.00 57 1013.7
20260503110124 7 211 4.8 9.7 0.00 0.00 0.00 57 1013.7